Location: Cheyres
(46.8153°N, 6.7877°E)
Time: 12:03:12
(UTC+00:00)

Gbstr 26 Del rocket - Pass Details

Date: 22 September 2021
Orbit: 492 x 1263 km, 51.8° (Epoch: 18 October)

Event Time Altitude Azimuth Distance (km) Brightness Sun altitude
Exits shadow 23:35:38 17° 68° (ENE) 2,691 6.4 -43.2°
Drops below altitude 10° 23:37:01 10° 71° (ENE) 3,132 6.8 -43.2°
Sets 23:39:45 0° 74° (ENE) 4,025 7.4 -43.2°
